Back to catalog

COSMOS 2499 DEB

AlivePO
NORAD 49933·DEBRIS·🇷🇺 Russia

Launched May 23, 2014 from Plesetsk Cosmodrome

Loading…

Next Passes (next 24 hours)

TLE

FreshSource: Space-Track

Epoch: Sep 11, 2026, 13:21 UTC

1 49933U 14028Q   26254.55629590  .00001725  00000-0  51717-2 0  9991
2 49933  82.5594 195.1066 0285351  82.5912 280.7524 12.93738053229093

Track COSMOS 2499 DEB in real time with AllMySat

Download on the App Store